Flag for Mexico Weather past 2 weeks in San Luis Potosi, San Luis Potosí, Mexico

59 °F

Passing clouds.

Feels Like: 59 °F
Forecast: 55 / 68 °F
Wind: No wind

Location: San Luis Potosi - S. L. P.

Current Time: Nov 29, 2015 at 5:46:43 AM

Latest Report: Nov 29, 2015 at 12:49 AM

Visibility: 10 mi

Pressure: 30.28 "Hg (24.24 "Hg at 1876m altitude)

Humidity: 88%

Dew point: 55 °F

Location of San Luis PotosiLocation

Historic Weather in San Luis Potosi — Graph


San Luis Potosi temperature yesterday

Maximum temperature yesterday: 68 °F (at 2:55 PM)
Minimum temperature yesterday: 55 °F (at 3:49 AM)
Average temperature yesterday: 59 °F

Past Weeks' High & Low Weather Summary

High79 °F (Nov 16, 1:49 PM)100% (Nov 15, 7:46 AM)30.38 "Hg (Nov 15, 7:46 AM)
Low45 °F (Nov 26, 7:26 AM)19% (Nov 18, 3:45 PM)29.63 "Hg (Nov 18, 2:49 AM)
Average60 °F74%30.14 "Hg
* Reported Nov 14 12:47 AM — Nov 29 12:49 AM, San Luis Potosi, Weather by CustomWeather, © 2015

Note: Actual official high and low records may vary slightly from our data, if they occured in-between our weather recording intervals... More about our weather records


San Luis Potosi weather history for previous 24 hours

Time TempWeatherWind HumidityBarometerVisibility
12:49 AM
Sun, Nov 29
59 °FPassing clouds.No wind88%30.28 "Hg10 mi
11:48 PM
Sat, Nov 28
59 °FPassing clouds.7 mph88%29.97 "Hg10 mi
10:45 PM61 °FMostly cloudy.No wind77%30.32 "Hg10 mi
7:49 PM63 °FPartly cloudy.6 mph73%30.26 "Hg10 mi
6:51 PM61 °FPassing clouds.No wind83%30.23 "Hg12 mi
5:48 PM64 °FBroken clouds.6 mph68%29.92 "Hg15 mi
2:55 PM68 °FMore clouds than sun.7 mph60%29.88 "Hg15 mi
12:45 PM66 °FMostly cloudy.No wind64%30.26 "Hg8 mi
11:49 AM66 °FMostly cloudy.No wind64%29.96 "Hg8 mi
10:20 AM59 °FFog.No wind94%30.31 "Hg2 mi
9:48 AM57 °FFog.No wind100%30.30 "Hg1 mi
9:22 AM57 °FFog.No wind100%30.28 "Hg1 mi
8:53 AM55 °FFog.No wind100%30.00 "Hg0 mi
8:32 AM55 °FFog.No wind100%30.29 "Hg0 mi
6:46 AM55 °FFog.No wind100%30.27 "Hg0 mi
6:13 AM55 °FFog.No wind100%30.26 "Hg0 mi
5:45 AM55 °FFog.No wind100%29.96 "Hg1 mi
5:13 AM55 °FFog.No wind100%30.24 "Hg2 mi
Weather by CustomWeather, © 2015

See weather overviewHow to use our weather pages